GFSNIL_sfc_rhum_021.txt.gz
RH
87 71 80 84 82 72 72 73 84 86 79 79 79 86 90 86 86 84 84 79 80 81
80 83 87 82 85 74 67 72 77 83 77 77 81 81 89 87 75 84 82 74 80 78
79 77 84 85 82 78 72 80 74 83 77 81 78 84 91 86 86 88 78 82 78 73
81 81 78 88 81 76 79 85 79 79 80 75 83 86 91 86 83 90 81 84 81 86
77 81 80 74 85 85 72 84 77 78 81 76 70 86 84 81 78 83 87 85 84 75
76 80 79 77 76 88 73 80 77 80 78 78 76 80 77 79 86 88 88 88 86 84
76 76 76 77 75 79 82 76 79 76 76 75 75 79 80 89 91 90 88 85 87 79
73 73 76 77 81 76 80 80 78 82 78 82 76 79 80 80 87 91 92 87 86 79
70 74 75 78 80 85 78 87 81 84 89 90 80 80 85 80 77 93 94 93 91 76
68 74 76 77 81 87 84 86 90 88 82 89 85 88 89 87 90 95 95 94 90 84
68 71 74 76 82 78 85 80 92 88 91 88 94 92 93 88 84 93 93 92 92 89
64 70 72 78 75 79 76 87 92 92 86 92 98 94 94 92 88 90 90 90 88 81
60 65 74 74 76 76 81 95 96 95 93 96 95 96 94 86 81 84 87 94 92 84
66 68 75 75 77 96 98 96 97 96 97 97 96 96 94 94 80 76 79 79 93 87

GFSNIL_sfc_rhum_024.txt.gz
RH
78 76 78 88 90 85 77 76 92 88 83 83 83 86 89 87 87 85 87 87 88 84
85 78 75 91 84 82 78 75 86 86 82 82 82 91 94 91 88 91 90 87 85 85
76 78 81 89 87 78 75 77 85 85 81 79 80 90 95 92 86 88 90 82 79 80
78 76 79 85 84 81 72 75 82 84 81 79 81 84 93 92 89 86 90 88 87 87
78 80 77 77 87 81 76 77 76 81 82 80 78 80 84 85 79 90 91 89 92 86
82 84 80 73 73 87 76 82 81 81 84 80 80 83 83 81 86 81 87 92 89 87
80 83 80 76 76 78 80 81 84 82 83 82 78 76 84 82 83 87 91 92 91 89
76 77 81 81 79 78 83 79 86 86 84 83 81 75 78 82 83 88 92 92 91 92
79 79 80 83 85 85 84 90 90 87 86 89 79 82 86 78 83 83 86 91 94 91
80 83 83 82 86 91 86 87 92 90 88 89 84 87 88 87 94 94 94 91 95 91
79 82 82 85 87 88 90 84 95 93 91 90 92 92 91 88 91 94 90 86 91 94
76 79 83 84 87 85 87 89 92 89 92 93 95 95 93 95 95 96 93 90 92 93
72 76 79 81 81 81 81 87 85 97 96 94 94 97 96 94 96 95 92 94 93 92
68 72 73 76 78 78 91 93 96 98 98 97 97 98 97 94 93 84 83 79 97 95

GFSNIL_sfc_rhum_030.txt.gz
RH
80 75 76 82 80 82 85 85 91 90 90 90 88 88 88 84 82 88 87 87 86 80
80 79 79 83 82 80 87 85 90 91 91 90 88 88 89 83 85 86 87 88 87 80
77 80 79 83 84 84 86 88 91 92 91 91 88 88 90 87 87 89 85 83 89 87
77 78 79 83 83 85 86 89 89 92 92 91 89 88 89 90 87 88 90 88 88 88
78 79 79 84 83 85 89 89 88 90 91 90 88 88 87 87 83 86 88 88 90 86
75 79 80 83 81 86 87 89 86 88 90 90 88 88 87 86 86 86 84 85 88 86
75 76 77 80 82 86 86 88 87 87 88 88 86 85 84 85 87 86 84 84 83 84
73 74 77 81 83 86 87 86 85 86 86 86 83 78 85 84 85 87 86 86 85 84
75 77 79 82 82 86 89 88 88 86 85 87 78 83 87 82 81 85 86 89 89 88
77 80 82 84 86 87 89 88 91 87 86 87 85 90 90 87 85 89 91 91 93 90
80 80 82 86 87 87 85 89 89 89 89 88 87 93 91 88 87 93 92 91 91 90
80 81 83 86 87 86 86 86 86 87 90 92 91 95 93 92 90 95 94 92 90 92
79 81 83 84 86 85 85 86 83 86 91 92 91 99 96 91 86 96 97 96 96 95
79 82 81 83 82 83 88 89 92 94 95 94 92 96 98 95 94 95 97 97 98 97

GFSNIL_sfc_rhum_033.txt.gz
RH
79 64 64 68 58 57 55 58 68 74 73 75 75 74 77 69 65 68 66 72 68 52
77 76 67 72 73 59 68 55 66 70 74 74 75 75 78 64 73 70 70 69 71 59
72 75 72 73 76 71 66 69 66 71 71 73 76 76 80 70 73 74 63 58 71 70
69 69 72 71 73 74 72 73 73 74 73 73 76 77 80 76 70 74 72 70 72 73
70 70 70 72 72 74 76 73 75 73 74 74 74 76 79 77 68 73 73 71 73 70
68 70 71 73 72 74 76 76 69 72 75 74 74 76 77 76 74 73 71 70 72 70
69 69 68 72 74 73 76 77 76 76 74 73 72 73 73 74 75 74 70 70 69 67
69 70 71 73 75 74 76 75 76 76 75 73 69 62 74 73 73 76 74 72 69 67
71 74 75 76 77 79 79 78 78 76 76 76 63 76 86 77 71 74 75 75 74 70
73 76 78 76 79 81 81 78 81 78 76 77 75 86 88 88 66 70 75 77 74 69
73 76 76 78 79 81 78 80 80 80 79 77 74 90 90 88 73 73 74 74 75 76
73 76 76 78 80 77 77 78 78 75 80 81 77 93 92 89 74 72 77 74 73 75
71 73 75 77 80 78 76 75 67 72 76 82 78 97 94 88 62 73 69 78 80 91
71 77 76 79 80 78 80 76 81 78 77 80 82 81 97 94 72 61 71 68 74 71